Location: Unspecified
(0.0000°N, 0.0000°E)
Time: 07:21:07
(UTC+00:00)

UKube-1 - Visible Passes

Search period start: 17 February 2020 00:00
Search period end: 27 February 2020 00:00
Orbit: 612 x 619 km, 98.5° (Epoch: 17 February)

Date Brightness Start Highest point End Pass type
(mag) Time Alt. Az. Time Alt. Az. Time Alt. Az.
17 Feb ? 05:14:13 10° SSE 05:18:29 59° ENE 05:22:42 10° N visible
18 Feb ? 05:30:09 10° S 05:34:28 80° WSW 05:38:46 10° NNW visible
19 Feb ? 05:46:18 10° S 05:50:27 46° WSW 05:54:34 10° NNW visible
20 Feb ? 04:29:10 10° E 04:30:44 12° ENE 04:32:19 10° NE visible
21 Feb ? 04:43:35 10° SE 04:46:43 20° ENE 04:49:50 10° NNE visible
22 Feb ? 04:58:50 10° SE 05:02:41 32° ENE 05:06:32 10° NNE visible
23 Feb ? 05:14:28 10° SSE 05:18:41 56° ENE 05:22:53 10° N visible
24 Feb ? 05:30:21 10° S 05:34:40 85° WSW 05:38:58 10° NNW visible
25 Feb ? 05:46:29 10° S 05:50:39 48° WSW 05:54:48 10° NNW visible
26 Feb ? 04:29:41 10° E 04:30:56 11° ENE 04:32:12 10° ENE visible
